[[{"header":{"parameterUnit":"m.s-1","parameterCategory":1,"la1":30.2991,"la2":30.254,"lo1":-89.0895,"lo2":-89.0444,"dy":0.0017,"dx":0.0017,"nx":28,"ny":28,"refTime":"2025-08-14T03:00:00:Z","depth":0,"parameterNumber":2,"parameterNumberName":"U-component_of_WINDS"},"data":[0,0,0,0,0,0,0,0,0,0,0,0,0,0,0,0,0,0,0,0,0,0,0,0,0,0,0,0,0,0,0,0,0,0,0,0,0,0,0,0,0,0,0,0,0,0,0,0,0,0,0,0,0,0,0,0,0,0,4.1635,4.1637,0,4.1794,4.1795,4.1797,4.1735,4.1732,4.1728,4.1724,4.1889,4.1897,4.1904,0,0,0,0,0,0,0,0,0,0,0,0,0,4.1279,4.1286,4.1635,4.1637,4.1639,4.1793,4.1796,4.1798,4.1736,4.1731,4.1727,4.1723,4.1887,4.1896,4.1905,0,0,0,0,0,0,0,0,0,0,0,0,0,4.1435,4.1288,4.1634,4.1626,4.1627,4.1793,4.1796,4.1798,4.1737,4.1731,4.1726,4.1721,4.1883,4.1895,4.1906,4.209,0,0,4.1942,4.1947,0,0,0,0,0,0,0,0,4.1427,4.1448,4.1626,4.1627,4.1629,4.1739,4.173,4.1896,4.1738,4.1695,4.1724,4.1718,4.1844,4.1858,4.19,4.2098,4.2105,4.1943,4.195,4.1956,4.1959,0,0,0,0,0,0,0,4.1416,4.1441,4.1698,4.1628,4.163,4.1615,4.1631,4.1762,4.1799,4.1699,4.1695,4.1714,4.1843,4.1889,4.1904,4.2107,4.1943,4.1953,4.1961,4.1965,4.2461,4.2467,0,0,0,0,0,0,4.1404,4.1433,4.1693,4.1702,4.1512,4.1626,4.1644,4.1709,4.1797,4.1805,4.1719,4.1711,4.1872,4.189,4.1909,4.2129,4.1955,4.1966,4.1973,4.2455,4.2463,4.2469,0,0,0,0,0,0,4.1397,4.1428,4.1686,4.1567,4.1598,4.1638,4.1712,4.1715,4.1761,4.1812,4.1819,4.1759,4.1868,4.1893,4.2045,4.2134,4.1972,4.1982,4.2448,4.2458,4.2466,4.257,0,0,0,0,0,0,4.1387,4.1426,4.1496,4.1569,4.1605,4.1819,4.1717,4.1722,4.1781,4.1772,4.1851,4.1859,4.1866,4.2028,4.2057,4.2147,4.1992,4.244,4.2452,4.2463,4.2559,4.2582,4.2601,0,0,0,0,0,4.1374,4.1519,4.15,4.1531,4.1693,4.1824,4.1845,4.1849,4.1788,4.1859,4.1892,4.1857,4.212,4.2044,4.2076,4.2171,4.2435,4.2449,4.2462,4.2549,4.2577,4.2601,0,0,0,0,0,0,4.1457,4.1529,4.1508,4.168,4.1747,4.1814,4.1903,4.1879,4.1964,4.1952,4.1954,4.1973,4.213,4.2166,4.208,4.2353,4.2268,4.2289,4.2323,4.235,4.2371,4.2359,4.2001,0,0,0,0,0,4.1495,4.1595,4.1653,4.18,4.1834,4.1863,4.192,4.1918,4.1987,4.2015,4.2059,4.2127,4.2225,4.229,4.2383,4.2564,4.258,4.2645,4.2666,4.2683,4.2701,4.2799,4.2828,4.2515,4.2515,4.2514,0,0,4.1575,4.1627,4.169,4.1817,4.1868,4.1972,4.1887,4.2001,4.2078,4.2032,4.2178,4.2213,4.229,4.2457,4.2533,4.2492,4.2791,4.2701,4.2714,4.2723,4.2816,4.2845,4.2872,4.2524,4.2522,4.2521,0,0,4.1773,4.1823,4.195,4.2003,4.2081,4.2099,4.213,4.2201,4.2221,4.2368,4.2335,4.2427,4.2596,4.2652,4.2702,4.2921,4.2892,4.2952,4.3062,4.3157,4.3182,4.3204,4.3281,4.3308,4.297,4.297,4.297,0,4.1863,4.2018,4.2019,4.2135,4.2192,4.2154,4.2283,4.2334,4.2439,4.2479,4.2432,4.2642,4.2691,4.287,4.2924,4.2966,4.3001,4.2942,4.3178,4.32,4.322,4.3294,4.3323,4.2977,4.2976,4.2975,4.2974,0,4.2124,4.2232,4.2325,4.2426,4.2493,4.2615,4.2635,4.2703,4.2695,4.2718,4.2867,4.2925,4.3028,4.3071,4.3064,4.3249,4.3221,4.3176,4.3091,4.3257,4.3326,4.3354,4.2986,4.2984,4.2982,4.298,0,0,4.2379,4.2478,4.2512,4.2557,4.264,4.2723,4.2844,4.2944,4.3002,4.3076,4.3176,4.332,4.3278,4.3336,4.3335,4.3418,4.3587,4.3363,4.3365,4.3402,4.3793,4.3825,4.3858,4.3568,4.3573,4.3578,4.3786,0,4.2583,4.2793,4.2797,4.2989,4.3088,4.3054,4.3159,4.3221,4.3246,4.3334,4.3362,4.3463,4.3401,4.3435,4.3516,4.3549,4.3665,4.3534,4.3661,4.3666,4.3642,4.3894,4.3929,4.4123,4.3813,4.3818,4.3821,0,4.2849,4.293,4.3132,4.32,4.3241,4.3335,4.3427,4.3512,4.3582,4.3594,4.3658,4.3644,4.3767,4.3678,4.3847,4.3758,4.381,4.3834,4.3841,4.3853,4.3753,4.3911,4.4185,4.4214,4.3864,4.3861,4.3857,0,4.3013,4.3173,4.3314,4.3354,4.3437,4.3503,4.3541,4.3605,4.3665,4.3745,4.3784,4.3878,4.393,4.4003,4.4016,4.395,4.4185,4.4097,4.4198,4.4198,4.4248,4.4245,4.4533,4.4284,4.4283,4.4283,4.4282,0,4.324,4.3365,4.3389,4.3475,4.3614,4.3618,4.3755,4.3788,4.3845,4.3938,4.3914,4.4002,4.4013,4.4104,4.4115,4.4252,4.4276,4.4289,4.429,4.429,4.4289,4.4324,4.431,4.4291,4.4289,4.4287,4.4286,0,4.3447,4.3468,4.3619,4.3685,4.3704,4.3803,4.3859,4.3943,4.3965,4.4082,4.411,4.4145,4.425,4.427,4.4395,4.4402,4.4565,4.4554,4.4542,4.454,4.4639,4.4629,4.4959,4.5002,4.4726,4.4729,4.4731,0,4.3589,4.3684,4.376,4.382,4.386,4.3958,4.4018,4.4025,4.4089,4.4176,4.4248,4.4351,4.4433,4.4603,4.464,4.4735,4.4724,4.4834,4.4739,4.4736,4.4725,4.4718,4.4727,4.4852,4.4855,4.4857,4.4859,0,4.3841,4.3846,4.3934,4.4025,4.4098,4.4171,4.4239,4.429,4.4306,4.4379,4.4486,4.455,4.4676,4.4778,4.4873,4.4912,4.4889,4.4889,4.4917,4.4918,4.4906,4.4912,4.459,4.4881,4.4879,4.4877,4.4876,4.4875,4.4019,4.4101,4.4167,4.4265,4.4317,4.4382,4.4463,4.4495,4.4584,4.4686,4.4685,4.4802,4.4869,4.4993,4.5039,4.513,4.5095,4.5136,4.5147,4.5156,4.5165,4.4892,4.5148,4.5147,4.5146,4.5146,4.5145,0,4.4268,4.4308,4.4398,4.4494,4.4572,4.4542,4.4617,4.4683,4.4786,4.485,4.4931,4.5054,4.5152,4.5197,4.5294,4.5358,4.535,4.5384,4.5378,4.5387,4.5191,4.5156,4.5389,4.5389,4.5388,4.5388,4.5388,4.5388,4.4406,4.4543,4.4556,4.4719,4.4759,4.4872,4.4917,4.4976,4.5027,4.5164,4.5246,4.5274,4.533,4.5431,4.552,4.553,4.5567,4.5605,4.5611,4.5426,4.5401,4.5378,4.5345,4.5613,4.5614,4.5799,4.5801,4.5802]},{"header":{"parameterUnit":"m.s-1","parameterCategory":1,"la1":30.2991,"la2":30.254,"lo1":-89.0895,"lo2":-89.0444,"dy":0.0017,"dx":0.0017,"nx":28,"ny":28,"refTime":"2025-08-14T03:00:00:Z","depth":0,"parameterNumber":3,"parameterNumberName":"V-component_of_WINDS"},"data":[0,0,0,0,0,0,0,0,0,0,0,0,0,0,0,0,0,0,0,0,0,0,0,0,0,0,0,0,0,0,0,0,0,0,0,0,0,0,0,0,0,0,0,0,0,0,0,0,0,0,0,0,0,0,0,0,0,0,0.319,0.319,0,0.3204,0.3204,0.3205,0.3176,0.3175,0.3174,0.3173,0.319,0.3192,0.3193,0,0,0,0,0,0,0,0,0,0,0,0,0,0.3138,0.3139,0.319,0.319,0.319,0.3204,0.3204,0.3205,0.3176,0.3175,0.3174,0.3173,0.319,0.3191,0.3193,0,0,0,0,0,0,0,0,0,0,0,0,0,0.3157,0.3139,0.319,0.3177,0.3176,0.3204,0.3204,0.3205,0.3176,0.3175,0.3173,0.3172,0.3189,0.3191,0.3193,0.3234,0,0,0.3199,0.32,0,0,0,0,0,0,0,0,0.3156,0.3159,0.3179,0.3178,0.3177,0.3187,0.3192,0.3215,0.3177,0.3176,0.3173,0.3171,0.319,0.3192,0.3198,0.3235,0.3236,0.32,0.3201,0.3202,0.3202,0,0,0,0,0,0,0,0.3155,0.3158,0.3195,0.3179,0.3178,0.3171,0.3173,0.3196,0.3191,0.3176,0.3174,0.3176,0.319,0.3196,0.3198,0.3236,0.3199,0.3201,0.3203,0.3203,0.3306,0.3308,0,0,0,0,0,0,0.3155,0.3157,0.3195,0.3196,0.3163,0.3174,0.3175,0.3185,0.3191,0.319,0.3178,0.3175,0.3194,0.3196,0.3199,0.3247,0.3202,0.3203,0.3205,0.3305,0.3307,0.3308,0,0,0,0,0,0,0.3154,0.3158,0.3194,0.3176,0.318,0.3176,0.3188,0.3186,0.3193,0.3192,0.3191,0.3185,0.3193,0.3196,0.3225,0.3247,0.3204,0.3206,0.3303,0.3305,0.3307,0.3344,0,0,0,0,0,0,0.3152,0.3158,0.3174,0.3177,0.3181,0.3221,0.3189,0.3188,0.3196,0.3193,0.3199,0.3198,0.3192,0.3222,0.3227,0.3249,0.3208,0.3301,0.3304,0.3307,0.3341,0.3347,0.3353,0,0,0,0,0,0.3151,0.3184,0.3175,0.3179,0.32,0.3222,0.3225,0.3216,0.3198,0.3214,0.3213,0.3198,0.3244,0.3226,0.3231,0.3254,0.33,0.3303,0.3307,0.3338,0.3346,0.3352,0,0,0,0,0,0,0.3185,0.3184,0.3174,0.3209,0.3216,0.3217,0.3237,0.3224,0.3237,0.3233,0.3222,0.3223,0.3255,0.3257,0.3237,0.3293,0.3269,0.3273,0.3291,0.3298,0.3304,0.3304,0.3209,0,0,0,0,0,0.3196,0.3213,0.3212,0.3243,0.3247,0.3241,0.325,0.3242,0.3249,0.3252,0.3253,0.3261,0.3276,0.3287,0.3302,0.334,0.3341,0.3358,0.3364,0.3369,0.3374,0.3394,0.3402,0.332,0.332,0.332,0,0,0.3221,0.3222,0.3234,0.325,0.3254,0.3272,0.3244,0.3264,0.3278,0.3255,0.3283,0.3284,0.3291,0.3325,0.334,0.3328,0.3396,0.3374,0.3378,0.338,0.3398,0.3406,0.3413,0.3322,0.3322,0.3321,0,0,0.3274,0.3277,0.3303,0.3308,0.3314,0.3309,0.3316,0.3318,0.3318,0.3345,0.3328,0.3344,0.3372,0.3378,0.3384,0.3438,0.3425,0.3443,0.3475,0.3494,0.3501,0.3507,0.3526,0.3533,0.3447,0.3448,0.3448,0,0.3304,0.333,0.3318,0.334,0.3347,0.3326,0.3353,0.3358,0.3369,0.3374,0.336,0.3394,0.3397,0.3432,0.3445,0.3451,0.3458,0.3443,0.3501,0.3506,0.3512,0.353,0.3537,0.345,0.345,0.3449,0.3449,0,0.3367,0.3385,0.3405,0.3415,0.3425,0.3449,0.3441,0.3452,0.3443,0.344,0.3467,0.3471,0.3485,0.3493,0.3484,0.3526,0.3518,0.3503,0.3478,0.3522,0.3539,0.3546,0.3453,0.3452,0.3451,0.3451,0,0,0.3444,0.3446,0.3454,0.3458,0.3462,0.3476,0.3499,0.3512,0.3522,0.353,0.3548,0.3571,0.3557,0.3564,0.3556,0.3573,0.3616,0.3555,0.3555,0.3567,0.3662,0.3674,0.3682,0.3606,0.3608,0.3609,0.3661,0,0.3498,0.3536,0.3525,0.3564,0.358,0.356,0.3579,0.3584,0.3582,0.3596,0.3593,0.3609,0.3589,0.3593,0.3609,0.3607,0.3635,0.3603,0.3624,0.3625,0.3624,0.3691,0.3704,0.3754,0.3668,0.3669,0.367,0,0.3566,0.3575,0.3615,0.3615,0.3622,0.364,0.3651,0.3664,0.3669,0.3666,0.3673,0.3661,0.3684,0.3658,0.3688,0.3667,0.3675,0.3675,0.3677,0.3679,0.3651,0.3696,0.3769,0.3777,0.368,0.3679,0.3678,0,0.3619,0.3641,0.3668,0.3672,0.3673,0.3686,0.3687,0.369,0.3699,0.3708,0.3713,0.3725,0.3732,0.3742,0.3734,0.3715,0.3765,0.3739,0.3764,0.3764,0.3776,0.3776,0.3853,0.378,0.378,0.378,0.378,0,0.368,0.3705,0.3691,0.3708,0.3735,0.3722,0.375,0.3749,0.3752,0.3768,0.3751,0.3766,0.3754,0.3768,0.3761,0.3788,0.3791,0.3789,0.3787,0.3791,0.3792,0.3797,0.3794,0.3782,0.3781,0.3781,0.3781,0,0.3744,0.3736,0.3764,0.3762,0.3762,0.3783,0.3781,0.3797,0.3792,0.3812,0.3816,0.381,0.3826,0.3818,0.3834,0.383,0.3864,0.3857,0.3862,0.3861,0.3886,0.3884,0.397,0.398,0.3901,0.3901,0.3902,0,0.3785,0.3803,0.3803,0.3812,0.3814,0.3829,0.3837,0.3825,0.3834,0.384,0.3854,0.3868,0.3879,0.3906,0.3902,0.3915,0.3909,0.3938,0.3911,0.3914,0.391,0.3909,0.3911,0.3944,0.3945,0.3945,0.3946,0,0.3857,0.3851,0.3863,0.3873,0.3883,0.3891,0.3897,0.3905,0.3893,0.3904,0.3919,0.3927,0.3944,0.3958,0.3968,0.397,0.3956,0.3954,0.3961,0.3966,0.3968,0.3967,0.3878,0.3953,0.3952,0.3952,0.3951,0.3951,0.3911,0.3926,0.3928,0.3942,0.3945,0.3951,0.3965,0.3961,0.3974,0.3985,0.3977,0.3995,0.3999,0.4011,0.4014,0.4028,0.4017,0.4026,0.4029,0.4032,0.4035,0.3965,0.403,0.403,0.403,0.403,0.403,0,0.3983,0.3982,0.3995,0.4003,0.4014,0.3998,0.4004,0.4014,0.403,0.4034,0.4044,0.4062,0.4075,0.4072,0.4084,0.4096,0.409,0.41,0.4099,0.41,0.4045,0.4038,0.4104,0.4104,0.4104,0.4104,0.4104,0.4104,0.4021,0.4047,0.4041,0.4067,0.4067,0.4084,0.4089,0.4094,0.4097,0.4117,0.4127,0.4125,0.4126,0.4138,0.4149,0.4148,0.4154,0.4166,0.4162,0.4111,0.4104,0.4097,0.409,0.4167,0.4167,0.4216,0.4217,0.4217]}]]